Regional Weather Roundup
Issued by NWS

Home | Current Version | Previous Version | Graphics & Text | Print | Product List | Glossary On
Versions: 1 2 3 4 5 6 7 8 9 10 11 12 13 14 15 16 17 18 19 20 21 22 23 24 25 26 27 28 29 30 31 32 33 34 35 36 37 38 39 40 41 42 43 44 45 46 47 48 49 50
000
ASUS43 KMKX 100111
RWRWI

WISCONSIN REGIONAL WEATHER ROUNDUP
NATIONAL WEATHER SERVICE MILWAUKEE/SULLIVAN WI
800 PM CDT WED JUL 09 2014

NOTE: "FAIR" INDICATES FEW OR NO CLOUDS BELOW 12,000 FEET WITH NO
SIGNIFICANT WEATHER AND/OR OBSTRUCTIONS TO VISIBILITY.

WIZ001-002-006>008-014>016-023>028-100200-
NORTHWEST WISCONSIN

CITY           SKY/WX    TMP DP  RH WIND       PRES   REMARKS
SUPERIOR ARPT  CLEAR     69  52  53 E3        29.98S
ASHLAND        CLEAR     67  53  61 SE3       30.01S
HAYWARD        CLEAR     70  50  49 NE5       30.01S
SIREN          CLEAR     71  52  50 CALM      30.00S
RICE LAKE      MOCLDY    72  52  50 CALM      30.02R
LADYSMITH      CLEAR     68  54  59 CALM      30.03S
EAU CLAIRE     MOCLDY    74  53  48 CALM      29.99S
MENOMONIE      PTCLDY    72  54  52 N3        30.00S
NEW RICHMOND   CLEAR     71  55  55 CALM      30.00S
OSCEOLA        CLEAR     74  54  50 CALM      30.01S
$$

WIZ003>005-009-010-017-018-100200-
NORTH CENTRAL WISCONSIN

CITY           SKY/WX    TMP DP  RH WIND       PRES   REMARKS
WOODRUFF       CLEAR     64  47  53 N6        30.03S
RHINELANDER    CLEAR     62  47  57 VRB3      30.03S
EAGLE RIVER      N/A     62  44  52 NW3       30.03R
LAND O LAKES   CLEAR     62  46  55 N3        30.04R
PHILLIPS       CLEAR     64  50  58 N3        30.02S
TOMAHAWK       CLEAR     63  49  59 CALM      30.04R
MEDFORD        CLEAR     64  52  65 CALM      30.03R
MERRILL        CLEAR     66  50  57 CALM      30.02S
$$

WIZ029-030-035-036-043>047-100200-
CENTRAL WISCONSIN

CITY           SKY/WX    TMP DP  RH WIND       PRES   REMARKS
WAUSAU         CLEAR     68  48  48 N5        30.01R
MOSINEE        CLEAR     64  50  59 N6        30.03S
MARSHFIELD     CLEAR     67  54  63 NW5       30.02R
STEVENS POINT  CLEAR     66  49  55 CALM      30.03R
WAUPACA        CLEAR     70  49  48 N3        30.02R
WAUTOMA        CLEAR     68  54  60 CALM      30.02R
WISC RAPIDS    CLEAR     70  49  47 N3        30.03R
CAMP DOUGLAS   PTCLDY    70  59  68 CALM      30.02R
$$

WIZ011>013-019>022-031-037>040-048>050-100200-
NORTHEAST WISCONSIN

CITY           SKY/WX    TMP DP  RH WIND       PRES   REMARKS
ANTIGO         CLEAR     62  48  60 N5        30.03R
STURGEON BAY   CLOUDY    63  52  67 NE8       30.03R
GREEN BAY      CLEAR     67  51  56 NW5       30.01R
MANITOWOC      MOCLDY    60  54  80 SE5       30.02R
APPLETON       PTCLDY    66  45  45 N6        30.02R
CLINTONVILLE   CLEAR     68  46  45 N3        30.01S
OSHKOSH        PTCLDY    67  50  54 NW6       30.01R
$$

WIZ032>034-041-042-053>061-100200-
SOUTHWEST WISCONSIN

CITY           SKY/WX    TMP DP  RH WIND       PRES   REMARKS
LA CROSSE      CLEAR     76  52  43 CALM      29.99S
SPARTA         CLEAR     71  50  46 CALM      30.02S
VIROQUA        FAIR      70  56  60 CALM      30.03S
BOSCOBEL       MOCLDY    74  56  53 CALM      30.01S
PRAIRIE DU CHI CLEAR     72  55  56 E3        30.01R
PLATTEVILLE    FAIR      70  57  63 CALM      30.04R
$$

WIZ056-057-062-063-064-067-068-100200-
SOUTH CENTRAL WISCONSIN

CITY           SKY/WX    TMP DP  RH WIND       PRES   REMARKS
BARABOO/DELLS  CLEAR     70  48  45 CALM      30.02S
LONE ROCK      CLEAR     73  60  63 CALM      30.02R
WATERTOWN      CLEAR     69  52  54 NW5       30.01S
MADISON        PTCLDY    71  53  52 N3        30.02R
MIDDLETON      FAIR      70  51  52 CALM      30.03R
MONROE         CLEAR     68  54  60 CALM      30.03R
JANESVILLE     PTCLDY    73  48  40 N7        30.01S
$$

WIZ051-052-058>065-066-070>072-100200-
SOUTHEAST WISCONSIN

CITY           SKY/WX    TMP DP  RH WIND       PRES   REMARKS
MILWAUKEE      PTCLDY    64  56  75 SE6       30.01R
WAUKESHA       PTCLDY    66  48  52 NW8       30.03R
MILWAUKEE/TIMM PTCLDY    70  46  43 N9        30.02
RACINE         CLEAR     65  55  70 S5        30.03R
BURLINGTON     CLEAR     65  52  62 NW3       30.02R
KENOSHA        CLEAR     67  58  72 CALM      30.02R
FOND DU LAC    CLEAR     68  51  54 N6        30.02R
SHEBOYGAN      MOCLDY    65  53  65 E6        30.01R
WEST BEND      PTCLDY    66  48  52 CALM      30.02R
JUNEAU         MOCLDY    68  36  31 NW3       30.03R
$$

LSZ147-162-100200-
LAKE SUPERIOR

STATION/POSITION TIME  TEMP    WIND        PRES    WAVE
                       AIR SEA DIR/SP/G            HT/PER
                 (UTC) (F)     (DEG/KT/KT) (MB)    (FT/S)
W MID LAKE BUOY  0050   45 38  210/  8/  8 1016.1R   0
DEVILS ISLAND    0100   65     170/  5/  7 1015.8R
PORT WING        0040   73     340/  1/  2 1015.6S
SAXON HARBOR     0000             CALM     1016.3
$$

LMZ867-665-643>646-100200-
LAKE MICHIGAN

STATION/POSITION TIME  TEMP    WIND        PRES    WAVE
                       AIR SEA DIR/SP/G            HT/PER
                 (UTC) (F)     (DEG/KT/KT) (MB)    (FT/S)
N MID LAKE BUOY  0050   58 55  260/  6/  8 1015.8R   0
NORTHPORT PIER   0000   65     230/  3/  5 1015.6R
SISTER BAY       2255   63      20/  7/  9   N/A
KEWAUNEE LAKESHO 0000   57     180/  9/ 10 1016.7R
SHEBOYGAN LAKESH 0100   59     130/ 10/ 10 1016.7R
PORT WASHINGTON  0000   60      50/  2/  3 1016.6R
ATWATER BUOY     0000   61     150/  4     1017.0R
MILWAUKEE LAKESH 0000   61     130/  6/  7   N/A
S MID LAKE BUOY  0050   59 58  230/  2/  2 1016.5R   0
KENOSHA   LAKESH 0100   63     170/  6/  7   N/A
$$

TC  - TEMPERATURE IN CELSIUS
VSB - VISIBILITY IN STATUTE MILES
WCI - WIND CHILL INDEX
HX  - HEAT INDEX



USA.gov is the U.S. government's official web portal to all federal, state and local government web resources and services.